Lapse_Rate
6.4 6.7 6.1 5.9 5.5 5.6 5.7 5.6 5.3 5.8 5.6 6.4 6.3 6.3 6.3 6.1 6.0 6.1 6.1 6.1 6.2 6.2 6.1 6.0 6.0 5.9 5.9 5.8 5.7 5.6 5.6 5.7 5.9 6.0 5.9 5.9 6.1 6.0 6.0 6.2 6.2 6.2 6.1
6.3 6.0 6.1 6.3 5.3 4.7 5.6 5.2 5.5 5.5 5.8 5.8 6.0 6.0 6.0 6.0 5.7 5.8 5.7 5.7 5.9 6.1 6.2 6.1 6.0 5.9 5.8 5.8 5.8 5.8 5.7 5.7 5.8 5.8 5.8 5.9 6.1 6.2 6.2 6.2 6.0 6.1 6.1
6.0 6.1 6.4 6.4 5.6 5.2 5.0 4.9 4.8 4.8 4.9 5.3 5.8 5.8 6.0 6.1 6.0 5.8 5.8 5.8 5.8 5.7 5.8 6.0 6.1 6.1 6.0 6.0 5.9 5.8 5.8 5.8 5.7 5.6 5.7 5.7 6.0 6.1 6.0 6.0 6.0 6.0 6.0
5.9 5.8 6.0 6.0 5.9 5.5 5.5 5.2 4.9 4.7 4.9 5.3 5.5 5.3 5.7 5.9 5.8 5.7 5.6 5.5 5.4 5.4 5.5 5.8 5.9 6.0 6.0 6.0 6.0 5.9 5.8 5.7 5.7 5.5 5.7 5.7 5.7 6.0 5.8 6.0 5.9 5.7 5.7
5.6 6.0 5.9 5.9 5.7 5.2 5.2 5.2 4.9 5.5 4.8 4.9 5.4 5.6 5.5 5.5 5.7 5.8 5.7 5.6 5.3 5.2 5.2 5.3 5.4 5.6 5.7 5.8 5.8 5.9 5.8 5.7 5.7 5.7 5.7 5.5 5.5 5.7 5.8 6.0 5.7 5.5 5.4
5.5 6.0 6.1 6.0 5.9 5.8 5.6 5.5 5.3 5.2 4.9 5.0 4.7 5.1 4.9 4.8 5.2 5.3 5.2 5.3 5.5 5.5 5.4 5.2 5.2 5.3 5.4 5.6 5.6 5.6 5.6 5.6 5.6 5.8 5.6 5.7 5.8 5.8 5.5 5.3 5.7 5.5 5.5
6.2 6.0 5.8 5.7 5.4 5.5 5.4 5.6 5.4 5.1 5.0 5.2 4.9 4.9 4.5 4.5 4.3 4.5 4.7 4.7 4.9 5.0 5.4 5.4 5.3 5.4 5.3 5.4 5.3 5.4 5.4 5.5 5.6 5.5 5.8 5.6 5.7 5.6 5.5 5.5 5.5 5.8 5.6
5.9 6.1 5.8 5.4 5.4 5.4 5.9 5.6 4.9 5.2 5.2 5.1 5.2 5.1 4.7 4.8 4.5 4.2 4.3 4.3 4.6 4.7 4.9 5.1 5.1 5.3 5.4 5.4 5.5 5.6 5.6 5.6 5.6 5.7 5.6 5.9 5.7 5.7 5.4 5.6 5.4 5.2 5.5
5.9 6.0 6.0 5.9 6.1 5.6 5.5 5.7 5.6 5.8 5.0 5.2 5.1 5.0 4.8 4.9 4.8 4.8 4.5 4.3 4.3 4.5 4.7 5.0 5.0 5.0 5.2 5.4 5.6 5.6 5.6 5.6 5.7 5.7 5.7 5.6 5.6 5.6 5.7 5.5 5.3 5.3 5.4
5.7 5.7 5.6 5.6 5.7 5.9 6.0 5.9 6.0 5.9 6.0 5.6 5.8 5.2 5.2 5.2 5.3 5.1 5.2 5.0 4.5 5.0 4.6 4.9 5.2 5.1 5.1 5.3 5.4 5.5 5.6 5.5 5.5 5.6 5.6 5.7 5.7 5.7 5.6 5.5 5.5 5.7 5.7
5.8 5.9 5.9 5.9 5.7 5.5 5.5 5.6 5.5 5.5 5.4 5.4 5.8 5.8 5.7 5.3 5.6 5.5 5.2 5.1 5.1 4.8 4.6 5.3 5.0 5.0 5.2 5.4 5.3 5.4 5.2 5.1 5.2 5.3 5.5 5.7 5.5 5.6 5.7 5.8 5.9 6.1 6.0
5.0 5.0 5.0 5.0 5.1 5.3 5.3 5.3 5.2 5.2 5.3 5.3 5.3 5.3 5.3 5.1 5.0 5.1 5.5 5.6 5.4 5.5 5.5 5.1 5.2 5.1 5.4 5.3 5.4 5.5 5.7 5.8 5.8 5.9 6.0 5.6 5.6 6.0 5.9 5.6 6.3 6.1 6.1
4.9 4.8 4.7 4.7 4.7 4.7 5.0 5.0 5.0 5.2 5.3 5.2 5.1 5.0 5.0 5.0 5.0 5.0 4.9 5.0 5.0 5.1 5.2 5.1 5.1 5.1 4.9 5.0 5.2 5.5 5.2 5.4 5.3 5.3 5.4 5.5 5.7 5.5 5.6 5.5 5.8 5.0 4.9
4.2 4.3 4.5 4.6 4.8 5.0 4.8 4.8 4.8 4.9 4.9 4.9 4.9 4.9 5.0 5.1 5.1 4.9 4.8 4.9 5.0 5.0 5.0 4.9 5.0 5.0 5.1 5.2 5.5 5.6 5.5 5.6 5.4 5.4 5.4 5.5 5.3 5.6 5.4 5.5 5.7 5.3 4.9
3.6 3.7 3.8 3.8 3.9 4.2 4.6 4.9 5.1 5.1 5.1 5.0 4.8 4.7 4.7 4.7 4.9 5.0 5.2 5.2 5.0 4.9 5.0 5.0 5.0 5.0 5.1 5.3 5.1 4.9 5.0 5.2 5.2 5.5 5.5 5.3 5.5 5.1 5.0 5.1 5.3 5.1 4.8
3.7 3.7 3.6 3.7 3.8 3.9 4.1 4.3 4.5 4.8 5.1 5.3 5.3 5.1 5.0 4.8 4.9 5.0 4.9 5.0 5.1 5.2 5.1 5.0 4.9 5.0 4.9 5.2 5.2 5.1 5.3 5.4 5.5 5.6 5.7 6.0 5.5 5.3 5.7 5.4 5.3 5.1 4.8
3.5 3.4 3.4 3.4 3.8 4.1 4.3 4.4 4.4 4.4 4.4 4.6 5.0 5.2 5.3 5.2 5.0 4.9 4.9 4.9 5.0 5.2 5.2 5.2 5.1 5.0 5.2 5.2 5.2 5.2 5.1 5.2 5.3 5.3 5.3 5.6 6.0 6.0 5.7 5.3 5.6 5.4 5.0
3.3 3.1 3.0 3.0 2.9 2.9 3.0 3.3 3.6 3.9 4.2 4.6 4.7 4.6 4.5 4.5 4.5 4.6 4.6 4.7 4.8 5.0 5.2 5.1 5.2 5.2 5.2 5.3 5.4 5.4 5.1 5.1 5.3 5.4 5.5 5.6 5.7 6.0 5.6 5.2 5.5 5.3 5.3
3.2 3.2 3.2 3.0 2.8 2.7 2.6 2.6 2.6 2.7 2.9 3.2 3.5 3.7 3.9 4.1 4.2 4.4 4.5 4.6 4.4 4.5 4.7 5.0 5.1 5.2 5.2 5.4 5.4 5.5 5.4 5.1 5.1 5.4 5.5 5.6 5.5 5.6 5.4 4.9 5.7 5.4 5.5
3.1 3.0 2.8 2.7 2.5 2.3 2.2 2.2 2.3 2.4 2.7 2.9 3.1 3.3 3.5 3.8 3.9 4.1 4.4 4.7 4.9 4.8 4.9 5.0 5.1 5.1 5.4 5.4 5.4 5.3 5.4 5.3 5.2 5.1 5.3 5.4 5.5 5.6 5.7 5.6 5.5 5.4 5.3
2.6 2.5 2.4 2.4 2.2 2.2 2.3 2.4 2.5 2.6 2.9 3.2 3.6 3.9 4.0 4.2 4.3 4.4 4.3 4.2 4.4 4.8 4.9 4.9 5.1 5.2 5.2 5.3 5.4 5.4 5.3 5.3 5.3 5.4 5.4 5.4 5.4 5.7 5.8 5.6 5.5 5.5 5.2
2.4 2.2 2.2 2.2 2.2 2.3 2.4 2.6 2.8 3.1 3.4 3.8 4.2 4.6 5.0 5.2 5.3 5.4 5.5 5.5 5.2 5.1 5.1 5.1 5.0 5.2 5.1 5.0 5.1 5.2 5.1 5.2 5.2 5.2 5.1 5.3 5.7 5.7 5.8 5.5 5.5 5.4 5.3
2.5 2.4 2.5 2.7 2.9 3.1 3.3 3.5 3.9 4.3 4.8 5.2 5.6 6.0 6.5 6.9 7.1 7.1 7.2 7.2 7.1 6.8 6.3 5.9 5.5 5.1 4.8 4.7 4.9 4.8 4.9 5.0 4.9 5.0 5.1 5.1 5.5 5.8 5.6 5.4 5.3 5.4 5.2
2.7 3.0 3.4 3.8 4.3 4.7 5.2 5.4 5.8 6.2 6.7 7.1 7.5 7.7 8.0 8.2 8.2 8.1 8.1 8.0 7.8 7.7 7.8 7.1 6.2 5.4 5.2 5.3 5.1 4.6 4.5 4.6 4.7 4.6 4.6 4.6 5.0 5.4 5.0 4.7 4.7 5.1 5.3
3.6 4.1 4.7 5.2 5.8 6.4 6.9 7.3 7.5 7.7 7.9 8.1 8.1 8.1 8.2 8.1 8.2 8.2 8.0 7.8 7.5 7.3 7.5 7.2 6.5 6.1 5.7 5.3 4.8 4.8 4.6 4.6 4.6 4.4 4.2 4.4 4.6 4.9 4.8 4.7 4.5 4.8 5.3
5.2 5.9 6.4 6.7 7.0 7.3 7.5 7.6 7.7 7.8 7.9 8.0 8.0 8.0 8.0 8.0 8.0 8.0 8.2 7.6 7.3 7.3 7.2 6.8 6.1 6.1 6.4 6.3 5.7 5.7 5.8 5.7 5.8 5.4 4.8 4.7 4.6 5.0 5.0 4.8 5.0 4.8 5.4
Wind_Speed
6 1 6 11 12 7 8 7 5 9 9 8 7 6 5 4 4 9 12 12 12 13 12 8 9 9 6 7 7 6 6 5 5 4 4 2 1 3 4 7 8 8 10
15 9 10 9 10 10 8 8 7 6 6 5 6 4 6 5 6 8 11 13 13 11 12 9 6 9 6 8 8 8 5 4 6 5 5 4 4 5 5 3 4 9 11
14 12 13 8 7 9 7 6 2 1 1 6 6 3 4 2 5 6 6 8 10 12 13 13 10 9 7 6 7 8 10 6 6 7 3 3 4 5 7 8 6 6 6
22 15 13 11 8 6 3 5 3 3 2 5 7 10 6 5 5 5 5 6 12 12 12 10 10 9 7 6 7 7 7 6 7 5 7 2 3 3 3 6 7 7 8
20 18 20 20 18 8 6 2 2 2 3 1 4 3 5 3 3 3 5 7 7 11 12 12 11 8 7 6 8 8 10 8 7 8 4 7 2 2 2 3 6 7 7
19 20 20 19 18 18 13 5 4 2 3 2 1 4 3 1 2 3 3 4 4 5 9 11 11 11 8 8 8 9 10 10 10 7 9 7 5 6 4 3 7 9 8
19 20 22 20 20 19 18 15 16 3 4 3 3 3 2 4 5 4 4 5 4 4 7 8 8 7 11 11 11 9 10 11 10 11 8 8 9 6 7 6 4 4 3
19 20 21 19 18 19 20 18 18 16 16 9 2 2 4 2 2 6 5 5 5 4 5 6 9 10 12 12 12 7 8 10 10 13 12 9 9 8 8 7 6 3 3
17 18 18 17 17 16 16 18 17 16 15 14 10 9 6 2 3 2 4 5 8 4 4 5 6 8 10 11 9 8 10 10 11 12 12 11 9 9 8 7 7 7 7
16 16 15 15 15 16 16 16 15 14 15 13 12 11 10 5 4 3 4 4 5 7 6 6 6 7 8 9 10 9 9 11 9 9 12 12 10 10 8 8 9 8 10
16 14 14 15 16 15 15 16 16 16 15 15 14 13 12 13 11 5 4 6 7 7 6 7 7 7 8 6 8 11 11 12 11 11 11 13 12 10 10 9 9 10 9
12 12 12 13 14 15 15 15 15 15 15 14 13 13 12 11 10 10 10 10 10 7 6 8 7 9 9 9 10 10 9 9 10 13 14 15 11 13 12 8 11 10 10
10 10 12 13 14 14 15 15 15 15 14 14 14 13 12 12 11 11 10 11 11 10 10 8 9 10 10 9 9 10 12 13 12 13 12 12 11 11 9 10 9 7 4
11 11 11 11 12 12 14 14 15 15 15 14 14 13 13 13 12 13 12 12 11 12 11 11 10 10 10 9 11 12 12 11 10 13 14 15 15 16 14 11 13 10 9
13 15 15 14 14 14 14 14 14 14 14 14 14 14 14 13 13 13 13 13 13 13 13 13 12 11 9 8 10 11 10 10 11 12 12 14 17 21 17 11 12 11 10
13 14 14 15 16 16 15 15 14 14 14 14 14 14 14 14 14 14 14 14 14 13 14 14 14 14 9 13 15 13 9 11 12 11 12 13 16 17 20 22 19 17 14
12 13 13 14 14 15 16 17 17 16 15 14 14 15 15 15 15 15 15 15 15 15 15 15 15 15 14 17 15 19 12 10 10 12 11 10 9 14 13 20 18 19 21
12 12 12 13 14 15 15 15 16 16 16 15 15 15 15 15 15 15 15 16 14 15 14 15 15 16 13 20 19 19 14 12 12 12 12 12 12 12 13 13 12 11 12
10 11 11 13 13 14 15 15 15 15 15 16 16 16 16 16 16 16 16 15 14 15 15 15 16 17 17 23 23 18 13 12 13 11 12 12 12 18 23 14 14 12 8
9 11 12 12 13 14 14 15 15 15 15 16 17 16 16 16 16 16 16 15 15 15 14 17 16 22 21 25 27 20 11 12 9 11 12 22 16 21 25 15 14 14 12
10 11 11 11 12 13 14 15 15 15 16 15 15 16 16 17 16 17 15 15 16 16 16 17 16 18 18 19 28 25 15 11 9 9 8 9 24 23 26 27 15 18 13
11 11 11 11 12 12 13 15 15 15 15 15 15 16 16 14 14 17 16 16 16 17 17 15 15 13 15 23 24 28 27 20 11 10 9 10 22 25 25 23 23 23 21
12 12 11 13 12 12 12 15 15 16 16 16 16 16 17 15 14 16 17 14 14 13 14 13 14 13 12 11 24 26 26 24 17 10 13 19 22 24 23 26 25 24 11
11 12 13 14 14 13 14 14 16 16 16 16 15 15 16 16 15 13 12 12 12 12 13 13 13 13 12 12 11 10 11 20 17 16 12 15 18 20 17 16 15 10 10
11 12 12 13 14 14 15 15 15 15 14 14 14 14 13 15 15 13 12 12 14 16 15 14 13 12 13 12 16 14 8 8 11 9 7 8 8 9 9 9 11 9 8
12 12 13 14 15 14 15 15 15 14 14 13 13 13 12 12 12 13 14 21 26 32 31 31 23 14 21 27 26 25 23 21 22 8 7 8 9 10 10 11 10 10 12
Wind_Direction
313 210 113 83 72 60 56 33 133 131 124 133 142 142 149 150 173 192 198 194 201 192 199 197 197 195 194 198 200 189 182 181 164 144 142 166 299 244 225 199 200 184 196
269 168 106 78 114 96 69 60 12 45 115 131 144 135 156 169 191 194 198 198 196 190 192 193 192 194 196 200 194 189 177 176 173 173 167 180 188 225 231 224 211 200 207
80 72 65 55 56 68 86 92 187 211 264 134 126 135 165 167 203 192 196 198 200 193 200 195 193 192 198 199 193 193 187 180 190 221 176 169 224 157 193 206 209 212 196
21 45 62 56 61 78 92 94 74 74 342 120 150 166 181 196 199 199 196 192 206 201 201 205 204 194 197 201 198 198 204 194 191 211 238 320 322 173 150 196 204 210 206
31 34 38 31 18 44 65 119 96 121 109 355 358 183 195 222 196 189 201 209 198 206 199 203 205 208 201 210 204 201 204 207 209 198 185 215 220 287 257 172 195 210 209
28 36 40 39 28 23 19 30 116 120 106 197 217 18 14 234 230 231 235 219 208 199 213 205 208 206 206 207 211 208 207 211 218 205 212 201 190 202 211 241 182 203 208
33 34 35 29 28 30 25 24 22 61 146 185 195 173 254 335 298 267 257 249 213 209 211 207 209 209 211 210 210 210 211 212 218 220 210 212 213 220 207 222 201 181 189
28 34 31 28 26 26 22 29 27 25 29 19 15 218 247 240 256 308 283 271 261 237 214 205 219 224 220 215 213 214 216 216 219 221 224 219 218 219 225 212 210 197 177
28 30 30 28 26 24 19 24 22 24 21 25 11 25 13 332 261 253 282 307 310 283 253 251 231 229 229 225 217 216 219 219 218 221 224 228 227 222 223 211 210 200 208
27 23 25 25 23 20 20 22 25 20 17 16 15 14 25 356 321 335 315 271 258 279 287 268 254 245 237 230 224 222 223 222 221 222 221 223 223 227 218 220 227 226 231
16 17 18 16 14 15 18 15 14 16 13 7 7 8 12 5 5 344 311 289 287 280 250 256 252 239 241 248 234 229 223 226 228 222 227 229 226 220 223 213 223 225 224
12 12 11 11 9 10 12 11 9 9 9 0 360 1 2 359 0 357 346 334 315 289 261 240 235 240 237 231 233 245 232 223 228 228 222 224 218 223 218 214 211 221 221
17 13 8 7 7 7 6 5 6 4 2 355 353 355 356 350 349 346 340 335 327 322 311 286 247 243 239 230 227 231 235 229 216 230 233 216 208 214 206 207 204 212 204
7 10 8 10 9 6 3 1 359 358 355 353 354 352 351 346 342 338 335 334 331 321 312 302 284 261 256 237 228 223 229 232 231 230 231 230 222 222 210 200 203 193 182
1 0 0 2 2 3 2 359 357 355 351 350 350 349 345 343 338 335 332 329 324 318 313 308 297 285 259 245 232 234 235 232 235 234 233 234 230 227 212 201 203 192 189
357 355 355 354 355 355 354 354 354 353 351 351 349 348 345 341 339 333 328 322 319 315 311 305 300 295 277 258 237 232 232 230 229 231 232 231 230 228 219 213 202 189 187
350 350 351 350 350 349 347 347 345 343 348 347 348 347 344 340 337 331 327 324 319 315 310 305 299 294 292 279 255 238 238 232 229 224 221 224 228 224 220 216 206 203 202
347 347 346 344 344 342 345 341 341 341 340 340 344 342 337 333 330 326 323 321 317 312 307 304 299 294 290 289 282 247 246 239 229 225 219 218 218 211 208 199 193 190 191
339 337 336 335 333 337 339 335 334 336 334 339 335 333 331 328 325 322 319 315 314 311 307 303 301 295 292 286 275 271 248 243 234 223 219 215 215 213 208 197 189 185 179
334 332 331 326 327 332 331 329 327 328 330 332 326 325 324 320 319 316 316 313 308 301 302 300 293 290 288 281 278 272 254 245 230 223 218 216 210 209 207 204 196 189 180
326 326 323 318 324 324 324 320 321 320 326 323 321 320 319 320 320 317 316 312 308 301 297 291 289 284 277 275 275 271 262 248 234 222 215 213 217 215 211 205 198 202 171
329 329 321 320 322 321 321 316 315 319 319 319 316 318 318 318 318 317 315 315 309 305 300 298 296 287 280 275 273 268 258 252 244 227 217 212 211 211 212 210 205 202 172
325 326 322 320 319 322 322 315 315 316 317 315 315 317 314 311 310 313 313 310 305 302 306 302 300 295 281 275 276 268 262 259 253 231 214 208 209 212 210 212 195 195 173
316 318 317 316 316 321 320 315 315 316 316 314 317 315 312 311 312 310 307 303 305 304 300 297 292 295 290 284 277 260 259 262 259 245 213 203 204 204 202 204 184 177 176
315 314 314 310 312 316 316 315 316 316 316 313 315 311 311 309 307 307 305 307 301 297 302 298 292 292 288 282 273 265 257 257 254 240 191 192 193 194 194 183 171 158 167
315 312 311 312 312 312 312 313 316 317 314 313 315 312 309 305 308 307 307 304 304 307 305 301 293 290 284 284 289 269 268 266 267 237 193 195 193 189 174 170 163 160 156